Huron, SD

1:38 PM CST on January 23, 2017 (GMT -0600)
Huron Regional

Weather History for KHON - September, 2012

Change the Weather History Date:

Friday, September 7, 2012

  Actual Average Record
Temperature  
Mean Temperature 59 °F 66 °F  
Max Temperature 73 °F 79 °F 99 °F (1978)
Min Temperature 44 °F 53 °F 34 °F (1986)
Degree Days  
Heating Degree Days 6 3  
Month to date heating degree days 6 17  
Since 1 July heating degree days 28 46  
Cooling Degree Days 0 4  
Month to date cooling degree days 50 31  
Year to date cooling degree days 1060 700  
Growing Degree Days 11 (Base 50)    
Moisture  
Dew Point 47 °F    
Average Humidity 66    
Maximum Humidity 96    
Minimum Humidity 36    
Precipitation  
Precipitation 0.00 in 0.09 in 1.37 in (1894)
Month to date precipitation 0.30 0.59  
Year to date precipitation 16.97 17.85  
Snow  
Snow 0.00 in 0.00 in 0.00 in ()
Month to date snowfall 0.0 0.0  
Since 1 July snowfall 0.0 0.0  
Since 1 September snowfall 0.0 0.0  
Snow Depth 0.00 in    
Sea Level Pressure  
Sea Level Pressure 30.09 in    
Wind  
Wind Speed 10 mph (NNW)    
Max Wind Speed 22 mph    
Max Gust Speed 33 mph    
Visibility 10 miles    
Events      
T = Trace of Precipitation, MM = Missing Value Source: NWS Daily Summary

Daily Weather History Graph

Daily Weather History Graph

Search for Another Location

Airport or City:

Trip Planner

Search our weather history database for the weather conditions in past years. The results will help you decide how hot, cold, wet, or windy it might be!

Date:

Astronomy

Sep. 07, 2012 Rise Set
Actual Time 7:03 AM CDT 7:57 PM CDT
Civil Twilight 6:33 AM CDT 8:26 PM CDT
Nautical Twilight 5:58 AM CDT 9:01 PM CDT
Astronomical Twilight 5:21 AM CDT 9:38 PM CDT
Moon 11:37 PM CDT (9/7) 2:13 PM CDT (9/7)
Length of Visible Light 13h 53m
Length of Day
12h 54m
Waning Gibbous, 58% of the Moon is Illuminated
Sep 7
Waning Gibbous
Sep 8
Last Quarter
Sep 15
New
Sep 22
First Quarter
Sep 29
Full

Hourly Weather History & Observations

Time (CDT) Temp. Windchill Dew Point Humidity Pressure Visibility Wind Dir Wind Speed Gust Speed Precip Events Conditions
12:55 AM 63.0 °F - 51.1 °F 65% 29.96 in 10.0 mi North 11.5 mph - N/A   Clear
1:55 AM 59.0 °F - 51.1 °F 75% 29.96 in 10.0 mi North 10.4 mph - N/A   Clear
2:55 AM 57.9 °F - 51.1 °F 78% 29.99 in 10.0 mi NNW 9.2 mph - N/A   Clear
3:55 AM 55.9 °F - 51.1 °F 84% 30.01 in 10.0 mi NNW 8.1 mph - N/A   Clear
4:55 AM 55.0 °F - 51.1 °F 86% 30.02 in 10.0 mi NNW 10.4 mph - N/A   Clear
5:55 AM 54.0 °F - 51.1 °F 90% 30.05 in 10.0 mi NNW 6.9 mph - N/A   Clear
6:55 AM 52.0 °F - 50.0 °F 93% 30.08 in 10.0 mi NW 6.9 mph - N/A   Clear
7:55 AM 51.1 °F - 50.0 °F 96% 30.11 in 9.0 mi WNW 5.8 mph - N/A   Clear
8:55 AM 55.9 °F - 51.1 °F 84% 30.12 in 10.0 mi NW 12.7 mph - N/A   Clear
9:55 AM 60.1 °F - 51.1 °F 72% 30.12 in 10.0 mi North 13.8 mph - N/A   Mostly Cloudy
10:55 AM 64.9 °F - 48.9 °F 56% 30.12 in 10.0 mi North 16.1 mph - N/A   Clear
11:55 AM 68.0 °F - 44.1 °F 42% 30.12 in 10.0 mi North 18.4 mph - N/A   Clear
1:55 PM 69.1 °F - 45.0 °F 42% 30.12 in 10.0 mi NNW 18.4 mph 23.0 mph N/A   Scattered Clouds
2:55 PM 69.1 °F - 43.0 °F 39% 30.12 in 10.0 mi NNW 12.7 mph - N/A   Mostly Cloudy
3:55 PM 72.0 °F - 44.1 °F 37% 30.12 in 10.0 mi NNW 16.1 mph 23.0 mph N/A   Partly Cloudy
4:55 PM 68.0 °F - 43.0 °F 40% 30.11 in 10.0 mi North 13.8 mph 23.0 mph N/A   Mostly Cloudy
5:55 PM 70.0 °F - 41.0 °F 35% 30.11 in 10.0 mi NNW 17.3 mph 23.0 mph N/A   Clear
6:55 PM 68.0 °F - 41.0 °F 37% 30.12 in 10.0 mi North 13.8 mph - N/A   Clear
7:55 PM 61.0 °F - 43.0 °F 52% 30.13 in 10.0 mi North 4.6 mph - N/A   Clear
8:55 PM 54.0 °F - 43.0 °F 66% 30.15 in 10.0 mi North 4.6 mph - N/A   Clear
9:55 PM 50.0 °F - 43.0 °F 77% 30.16 in 10.0 mi NNW 3.5 mph - N/A   Clear
10:55 PM 51.1 °F - 42.1 °F 71% 30.16 in 10.0 mi West 3.5 mph - N/A   Clear
11:55 PM 46.0 °F 43.1 °F 41.0 °F 83% 30.16 in 10.0 mi West 5.8 mph - N/A   Clear